Warning: Javascript must be enabled to use all the features on this page!


Page Loading - Please Wait...

* We've detected you're using a mobile device. Find our Next Generation Station Page here.
Click to hideNews Bulletins

Peak Streamflow for the Nation

USGS 13311000 EF OF SF SALMON RIVER AT STIBNITE, ID

Valley County, Idaho
Hydrologic Unit Code 17060208
Latitude  44°54'20.6", Longitude 115°19'46.2" NAD83
Drainage area 19.3  square miles
Gage datum 6,466 feet above NAVD88
Output formats
Table
Graph
Tab-separated file
peakfq (watstore) format
Reselect output format
Water
Year
Date Gage
Height
(feet)
Stream-
flow
(cfs)
1929 1929-06-16 3.43 155
1930 1930-06-10 3.703 242
1931 1931-05-14 3.083 110
1932 1932-06-15 3.953 232
1933 1933-06-14 4.493 369
1934 1934-05-07 3.512 1302
1935 1935-06-08 3.403 181
1936 1936-05-14 3.653 220
1937 1937-05-27 3.113 116
1938 1938-06-06 3.973 256
1939 1939-05-04 3.203 105
1940 1940-05-25 3.533 162
1941 1941-05-26 3.393 139
1942 1942-06-07 3.843 211
1983 1983-05-29 6.88 285
1984 1984-06-20 6.81 242
1985 1985-05-24 6.32 173
1986 1986-05-31 7.11 394
1987 1987-04-28 5.82 92.0
1988 1988-05-25 5.90 90.0
1989 1989-06-08 6.07 129
1990 1990-05-29 5.97 114
1991 1991-06-11 6.08 143
1992 1992-05-08 5.77 89.0
1993 1993-05-27 6.34 197
1994 1994-05-12 5.792 93.0
1995 1995-06-05 6.36 201
1996 1996-06-09 6.92 344
1997 1997-06-10 6.65 271
2011 2011-06-23 6.99 413
2012 2012-04-26 6.60 273
2013 2013-05-13 6.61 270
2014 2014-05-24 6.59 287
2015 2015-05-22 5.87 126
2016 2016-05-08 6.45 248
2017 2017-05-31 7.04 430
2018 2018-05-27 6.55 275
2019 2019-06-03 6.39 239
2020 2020-05-30 6.43 243
2021 2021-05-18 5.882 126
?
  Peak Gage-Height Qualification Codes.
?
  Peak Streamflow Qualification Codes.